ALCOMSAT 1 (43039 NORAD) Tracking and Keplerian Element Data

This shows tracking and keplerian element data for the satellite.

Feedback or suggestion? Click here.




ElementValue
Catalog43039
NameALCOMSAT 1
Epoch Orbit233
Epoch Day202.23865044
Epoch Year2018
RAAN282.0958
Inclination0.0445
Eccentricity0.0003306
Argument of Perigee199.7187
Mean Anonmoly238.2176
Mean Motion1.0026967
Decay Rate-2.01E-06
L11 43039U 17078A 18202.23865044 -.00000201 00000-0 00000+0 0 9990
L22 43039 0.0445 282.0958 0003306 199.7187 238.2176 1.00269670 2330

Live tracking and technical data element details for ALCOMSAT 1 (NORAD 43039). ALCOMSAT 1 can be tracked NOW for your location showing map with azimuth and elevation plus other details from your city location.

Track the satellite on the map from your city or location and see movement details for azimuth, elevation, latitude, longitude, range, height, and movement on the map or in text.







IsCatalogInMostPopularTable: catalog: 43039, numindb: 99
Update: records affected: 1



GetName: 43039 ALCOMSAT 1

Hit Count: updated at: Mon, 23 Jul 2018 07:29:48 GMT